Tracking 20241 objects as of 27-Jan-2020
HD Live streaming from Space Station
objects crossing your sky now

CZ-4C DEB

Track CZ-4C DEB now!
10-day predictions


NORAD ID: 44211
Int'l Code: 2019-024E
Perigee: 498.1 km
Apogee: 527.8 km
Inclination: 97.5 °
Period: 94.7 minutes
Semi major axis: 6883 km
RCS: Unknown
Launch date: April 29, 2019
Source: People's Republic of China (PRC)
Launch site: Taiyaun Space Center, China (TSC)

Note: This is SATELLITE DEBRIS
aabbcc
Your satellite tracking list
Your tracking list is empty




NASA's NSSDC Master Catalog

Two Line Element Set (TLE):
1 44211U 19024E   20027.01199259  .00001225  00000-0  59778-4 0  9995
2 44211  97.4600  36.5134 0021570  51.2463 309.0700 15.20014820 41229
Source of the keplerian elements: AFSPC